Ferguson, KY

1:16 AM EDT on August 24, 2016 (GMT -0400)
Somerset-Pulaski County-Wilson

Weather History for KSME - November, 2013

Change the Weather History Date:

Tuesday, November 12, 2013

  Actual Average Record
Temperature  
Mean Temperature 37 °F -  
Max Temperature 50 °F 56 °F 73 °F (2010)
Min Temperature 24 °F 36 °F 24 °F (1996)
Degree Days  
Heating Degree Days 28    
Moisture  
Dew Point 25 °F    
Average Humidity 68    
Maximum Humidity 100    
Minimum Humidity 41    
Precipitation  
Precipitation 0.01 in - - ()
Sea Level Pressure  
Sea Level Pressure 30.44 in    
Wind  
Wind Speed 8 mph (NNE)    
Max Wind Speed 17 mph    
Max Gust Speed 25 mph    
Visibility 9 miles    
Events Rain , Snow    
Averages and records for this station are not official NWS values.
T = Trace of Precipitation, MM = Missing Value Source: NWS Daily Summary

Daily Weather History Graph

Daily Weather History Graph

Search for Another Location

Airport or City:

Trip Planner

Search our weather history database for the weather conditions in past years. The results will help you decide how hot, cold, wet, or windy it might be!

Date:

Astronomy

Nov. 12, 2013 Rise Set
Actual Time 7:14 AM EST 5:30 PM EST
Civil Twilight 6:46 AM EST 5:58 PM EST
Nautical Twilight 6:15 AM EST 6:29 PM EST
Astronomical Twilight 5:44 AM EST 7:00 PM EST
Moon 2:38 PM EST (11/12) 2:09 AM EST (11/12)
Length of Visible Light 11h 11m
Length of Day
10h 16m
Waxing Gibbous, 76% of the Moon is Illuminated
Nov 12
Waxing Gibbous
Nov 17
Full
Nov 25
Last Quarter
Dec 2
New
Dec 9
First Quarter

Hourly Weather History & Observations

Time (EST) Temp. Windchill Dew Point Humidity Pressure Visibility Wind Dir Wind Speed Gust Speed Precip Events Conditions
12:15 AM 48.2 °F - 35.6 °F 62% 30.16 in 10.0 mi NNW 3.5 mph - N/A   Overcast
12:35 AM 50.0 °F - 35.6 °F 58% 30.16 in 10.0 mi Calm Calm - N/A   Overcast
12:55 AM 50.0 °F - 35.6 °F 58% 30.16 in 10.0 mi Calm Calm - N/A   Overcast
1:15 AM 48.2 °F - 35.6 °F 62% 30.16 in 10.0 mi Calm Calm - N/A   Overcast
1:35 AM 50.0 °F - 35.6 °F 58% 30.16 in 10.0 mi Calm Calm - N/A   Overcast
1:55 AM 50.0 °F - 32.0 °F 50% 30.16 in 10.0 mi WNW 3.5 mph - N/A   Overcast
2:15 AM 50.0 °F - 33.8 °F 54% 30.18 in 10.0 mi North 11.5 mph 20.7 mph N/A   Overcast
2:35 AM 50.0 °F - 37.4 °F 62% 30.19 in 10.0 mi North 12.7 mph 20.7 mph N/A   Overcast
2:55 AM 48.2 °F - 39.2 °F 71% 30.20 in 10.0 mi North 13.8 mph 19.6 mph N/A   Overcast
3:15 AM 46.4 °F 40.1 °F 41.0 °F 81% 30.21 in 10.0 mi North 15.0 mph 19.6 mph N/A   Overcast
3:35 AM 46.4 °F 40.7 °F 39.2 °F 76% 30.22 in 10.0 mi NNE 12.7 mph 23.0 mph N/A   Overcast
3:55 AM 44.6 °F 38.1 °F 37.4 °F 76% 30.23 in 10.0 mi North 13.8 mph 20.7 mph N/A   Overcast
4:15 AM 42.8 °F 35.4 °F 35.6 °F 76% 30.24 in 10.0 mi North 15.0 mph 25.3 mph N/A   Overcast
4:35 AM 41.0 °F 32.8 °F 33.8 °F 76% 30.26 in 10.0 mi NNE 16.1 mph 23.0 mph N/A   Light Drizzle
4:55 AM 39.2 °F 30.2 °F 33.8 °F 81% 30.28 in 10.0 mi NNE 17.3 mph 24.2 mph N/A   Overcast
5:15 AM 37.4 °F 29.3 °F 32.0 °F 81% 30.30 in 10.0 mi NNE 12.7 mph 23.0 mph N/A Rain Light Rain
5:35 AM 35.6 °F 28.0 °F 32.0 °F 87% 30.31 in 7.0 mi NNE 10.4 mph 20.7 mph N/A Rain Light Rain
5:55 AM 33.8 °F 23.9 °F 32.0 °F 93% 30.33 in 10.0 mi NNE 15.0 mph 23.0 mph N/A Rain Light Rain
6:15 AM 33.8 °F 25.3 °F 32.0 °F 93% 30.35 in 10.0 mi North 11.5 mph 17.3 mph N/A   Light Drizzle
6:35 AM 32.0 °F 23.6 °F 32.0 °F 100% 30.36 in 4.0 mi NNE 10.4 mph 17.3 mph N/A Snow Light Snow
6:55 AM 32.0 °F 24.8 °F 32.0 °F 100% 30.37 in 4.0 mi North 8.1 mph - N/A Snow Light Snow
7:15 AM 32.0 °F 24.2 °F 32.0 °F 100% 30.39 in 1.8 mi North 9.2 mph - 0.01 in Snow Light Snow
7:35 AM 32.0 °F 25.6 °F 32.0 °F 100% 30.40 in 4.0 mi North 6.9 mph - 0.01 in Snow Light Snow
7:55 AM 32.0 °F 23.0 °F 32.0 °F 100% 30.41 in 5.0 mi North 11.5 mph - 0.01 in Snow Light Snow
8:15 AM 32.0 °F 24.8 °F 32.0 °F 100% 30.42 in 5.0 mi North 8.1 mph - N/A Snow Light Snow
8:35 AM 32.0 °F 25.6 °F 32.0 °F 100% 30.44 in 1.5 mi North 6.9 mph - N/A Snow Light Snow
8:55 AM 32.0 °F 21.6 °F 32.0 °F 100% 30.44 in 1.5 mi NE 15.0 mph 20.7 mph N/A Snow Light Snow
9:15 AM 32.0 °F 22.1 °F 30.2 °F 93% 30.46 in 7.0 mi NNE 13.8 mph 19.6 mph N/A   Overcast
9:35 AM 32.0 °F 21.2 °F 26.6 °F 80% 30.46 in 10.0 mi NNE 16.1 mph 25.3 mph N/A   Overcast
9:55 AM 32.0 °F 21.6 °F 26.6 °F 80% 30.47 in 10.0 mi NNE 15.0 mph 21.9 mph N/A   Overcast
10:15 AM 32.0 °F 24.2 °F 26.6 °F 80% 30.48 in 10.0 mi NNE 9.2 mph 18.4 mph N/A   Overcast
10:35 AM 32.0 °F 22.5 °F 26.6 °F 80% 30.48 in 10.0 mi NNE 12.7 mph 17.3 mph N/A   Overcast
10:55 AM 32.0 °F 22.5 °F 24.8 °F 75% 30.49 in 10.0 mi NNE 12.7 mph 23.0 mph N/A   Overcast
11:15 AM 32.0 °F 21.6 °F 26.6 °F 80% 30.49 in 10.0 mi North 15.0 mph 25.3 mph N/A   Overcast
11:35 AM 32.0 °F 22.1 °F 24.8 °F 75% 30.50 in 10.0 mi North 13.8 mph 18.4 mph N/A   Overcast
11:55 AM 32.0 °F 22.1 °F 24.8 °F 75% 30.49 in 10.0 mi NNE 13.8 mph 20.7 mph N/A   Mostly Cloudy
12:15 PM 32.0 °F 21.6 °F 23.0 °F 69% 30.50 in 10.0 mi North 15.0 mph 18.4 mph N/A   Scattered Clouds
12:35 PM 32.0 °F 23.0 °F 23.0 °F 69% 30.50 in 10.0 mi North 11.5 mph 17.3 mph N/A   Mostly Cloudy
12:55 PM 33.8 °F 25.3 °F 23.0 °F 65% 30.49 in 10.0 mi North 11.5 mph 17.3 mph N/A   Scattered Clouds
1:15 PM 33.8 °F 23.5 °F 19.4 °F 56% 30.49 in 10.0 mi North 16.1 mph 20.7 mph N/A   Scattered Clouds
1:35 PM 33.8 °F 26.4 °F 21.2 °F 60% 30.49 in 10.0 mi NNE 9.2 mph 20.7 mph N/A   Clear
1:55 PM 35.6 °F 27.5 °F 21.2 °F 56% 30.49 in 10.0 mi NNE 11.5 mph 20.7 mph N/A   Scattered Clouds
2:15 PM 35.6 °F 28.0 °F 21.2 °F 56% 30.50 in 10.0 mi NNE 10.4 mph 21.9 mph N/A   Scattered Clouds
2:35 PM 33.8 °F 23.9 °F 19.4 °F 56% 30.50 in 10.0 mi NE 15.0 mph 18.4 mph N/A   Mostly Cloudy
2:55 PM 35.6 °F 25.9 °F 19.4 °F 52% 30.51 in 10.0 mi North 16.1 mph 23.0 mph N/A   Mostly Cloudy
3:15 PM 35.6 °F 25.9 °F 17.6 °F 48% 30.51 in 10.0 mi North 16.1 mph 21.9 mph N/A   Mostly Cloudy
3:35 PM 35.6 °F 27.5 °F 17.6 °F 48% 30.52 in 10.0 mi NNE 11.5 mph 23.0 mph N/A   Mostly Cloudy
3:55 PM 35.6 °F 25.9 °F 15.8 °F 44% 30.52 in 10.0 mi North 16.1 mph 23.0 mph N/A   Scattered Clouds
4:15 PM 33.8 °F 24.8 °F 14.0 °F 44% 30.53 in 10.0 mi NNE 12.7 mph 25.3 mph N/A   Clear
4:35 PM 33.8 °F 23.9 °F 12.2 °F 41% 30.53 in 10.0 mi North 15.0 mph 23.0 mph N/A   Clear
4:55 PM 33.8 °F 25.8 °F 12.2 °F 41% 30.53 in 10.0 mi North 10.4 mph 20.7 mph N/A   Clear
5:15 PM 33.8 °F 25.3 °F 12.2 °F 41% 30.54 in 10.0 mi North 11.5 mph - N/A   Clear
5:35 PM 32.0 °F 24.2 °F 14.0 °F 48% 30.55 in 10.0 mi North 9.2 mph - N/A   Clear
5:55 PM 32.0 °F 24.2 °F 14.0 °F 48% 30.56 in 10.0 mi North 9.2 mph 17.3 mph N/A   Clear
6:15 PM 32.0 °F 24.8 °F 14.0 °F 48% 30.56 in 10.0 mi NNE 8.1 mph - N/A   Clear
6:35 PM 32.0 °F 25.6 °F 14.0 °F 48% 30.57 in 10.0 mi NNE 6.9 mph - N/A   Clear
6:55 PM 32.0 °F 24.8 °F 14.0 °F 48% 30.57 in 10.0 mi NE 8.1 mph - N/A   Clear
7:15 PM 30.2 °F 25.4 °F 15.8 °F 55% 30.58 in 10.0 mi NNE 4.6 mph - N/A   Clear
7:35 PM 30.2 °F 24.3 °F 15.8 °F 55% 30.59 in 10.0 mi NE 5.8 mph - N/A   Clear
7:55 PM 30.2 °F 26.7 °F 15.8 °F 55% 30.59 in 10.0 mi NNE 3.5 mph - N/A   Clear
8:15 PM 30.2 °F 26.7 °F 17.6 °F 60% 30.60 in 10.0 mi NNE 3.5 mph - N/A   Clear
8:35 PM 28.4 °F 24.6 °F 17.6 °F 64% 30.60 in 10.0 mi NE 3.5 mph - N/A   Clear
8:55 PM 30.2 °F - 15.8 °F 55% 30.61 in 10.0 mi Calm Calm - N/A   Clear
9:15 PM 30.2 °F - 17.6 °F 60% 30.61 in 10.0 mi Calm Calm - N/A   Clear
9:35 PM 28.4 °F - 15.8 °F 59% 30.62 in 10.0 mi Calm Calm - N/A   Clear
9:55 PM 30.2 °F - 15.8 °F 55% 30.62 in 10.0 mi Calm Calm - N/A   Clear
10:15 PM 28.4 °F - 17.6 °F 64% 30.62 in 10.0 mi Calm Calm - N/A   Clear
10:35 PM 28.4 °F - 17.6 °F 64% 30.62 in 10.0 mi Calm Calm - N/A   Clear
10:55 PM 26.6 °F - 17.6 °F 69% 30.62 in 10.0 mi Calm Calm - N/A   Clear
11:15 PM 26.6 °F - 17.6 °F 69% 30.62 in 10.0 mi Calm Calm - N/A   Clear
11:35 PM 24.8 °F 20.5 °F 17.6 °F 74% 30.62 in 10.0 mi North 3.5 mph - N/A   Clear
11:55 PM 26.6 °F 21.2 °F 17.6 °F 69% 30.62 in 10.0 mi North 4.6 mph - N/A   Clear